Hauptseite
METAR-TAF:

METAR-TAF

Flughäfen :

Militärflugplatz Emmen

Emmen, Schweiz

Breite: 47-05-32N, Länge: 8-18-16E, Höhe: 426 m

Beobachtung

Neuester Wetterbericht von vor 21 Minuten, um 01:50 UTC
Wind 2 kt aus unterschiedlichen Richtungen
Temperatur 16°C
Luftfeuchtigkeit 82%
Luftdruck 1016 hPa
Sichtweite 10 km oder mehr

METAR: LSME 170150Z AUTO VRB02KT 9999NDV NCD 16/13 Q1016 RMK

Zeit: 04:11 (02:11 UTC)


TAF: fehlend

Wetterbeobachtungen und Prognosen von mehr als 4000 Flughäfen (METAR und TAF Bericht).

Die verfügbaren Stationen werden durch gelbe und rote Markierungen auf der Karte dargestellt.

Führen Sie die Maus auf sie, um den Namen der Station zu sehen.

Darauf klicken, um die Beobachtung von Wetterbeobachtungen und Prognosen zu sehen.

Um die Karte zu ändern : klicken Sie auf den grünen Tasten mit einem schwarzen Kreuz Zum Vergrößern, auf den grünen Button mit einem Gedankenstrich zu verkleinern, oder auf die grünen Pfeile für benachbarte Karten.


METAR-TAF: